Wind_Speed
15 15 16 16 16 16 16 16 17 17 17 18 18 20 20 20 21 21 22 22 23 24 25 26 26 27 28 28 29 29 30 30 31 32 32 32 32 32
15 15 15 16 16 15 15 16 17 17 18 18 19 19 20 20 19 20 21 21 22 23 24 24 25 26 27 27 28 29 29 29 29 30 31 32 33 33
15 15 15 16 15 15 16 16 16 17 18 18 19 19 19 19 19 20 21 21 22 22 23 24 26 26 27 27 28 28 28 28 28 29 30 31 33 33
15 15 15 16 15 15 15 16 17 17 17 17 18 19 19 20 21 22 22 23 24 24 25 24 25 26 27 28 28 28 28 28 29 30 30 31 32 33
15 15 16 16 15 15 15 16 16 17 17 17 19 19 20 21 22 23 23 24 25 25 25 25 26 27 27 27 27 27 28 29 29 30 31 31 32 33
14 14 15 16 15 16 16 16 17 16 17 18 20 20 21 22 23 23 23 24 25 25 25 25 26 26 27 27 27 27 28 29 29 30 31 32 33 33
14 15 15 15 15 15 16 16 17 17 18 19 21 21 21 22 22 22 23 23 24 24 25 25 26 27 27 27 28 28 28 28 30 31 31 32 33 33
14 14 15 15 15 15 16 17 18 18 19 20 20 20 21 21 21 22 23 23 23 24 25 25 26 26 26 27 28 28 29 29 30 30 31 31 32 32
14 14 14 14 15 16 17 18 18 18 19 20 20 20 21 21 22 22 23 23 23 24 25 25 26 26 26 26 27 28 28 29 30 30 30 30 30 31
14 14 14 15 16 17 17 17 17 18 19 20 20 20 20 22 22 22 23 24 23 24 25 25 24 25 25 26 26 26 27 27 28 28 29 30 30 30
14 15 15 15 15 16 16 16 17 18 19 19 19 19 20 20 21 22 23 23 23 23 23 24 24 24 25 26 26 26 26 26 26 27 27 27 27 27
14 14 15 16 16 16 17 17 17 18 19 19 18 19 19 20 21 21 22 22 22 22 23 23 23 24 24 25 25 25 24 24 24 24 24 25 25 25
14 15 15 16 16 16 17 17 18 18 18 18 19 19 20 20 21 21 22 22 22 22 23 23 24 24 24 24 24 23 23 22 22 22 22 23 24 24
15 15 15 16 16 16 16 17 18 18 18 18 19 19 20 21 21 21 21 21 21 22 23 23 23 23 23 23 23 22 22 21 20 20 20 21 22 22
14 15 15 15 15 16 16 16 17 18 18 18 19 19 20 21 21 21 21 22 22 22 22 22 22 22 22 22 22 22 20 20 19 19 19 19 19 20
14 15 15 15 15 16 16 17 17 17 18 19 19 19 20 20 20 21 21 22 22 22 22 22 22 22 22 22 22 20 19 19 18 18 18 18 18 19
14 14 14 14 14 15 15 16 16 17 18 19 19 19 19 19 20 20 21 21 21 22 21 21 21 21 21 21 20 19 18 17 17 17 18 19 19 20
15 14 14 14 14 15 15 15 16 17 18 19 19 19 19 19 19 20 20 21 20 20 20 20 20 20 20 20 19 18 17 17 17 18 18 19 19 20
14 14 14 14 15 15 16 16 16 17 18 19 19 19 19 19 19 19 20 20 20 19 19 19 19 19 19 18 17 17 17 17 17 18 18 19 20 21
14 14 14 14 15 17 17 17 17 18 18 19 19 19 19 19 19 19 19 19 19 19 19 19 19 19 19 18 17 17 18 18 18 18 19 20 21 21
15 15 15 15 16 17 18 17 17 18 18 18 19 19 19 19 19 19 18 18 18 18 19 19 19 19 19 18 17 17 18 18 18 19 20 20 20 20
15 15 16 16 17 18 18 18 18 18 18 18 19 18 18 19 19 19 18 18 18 18 18 18 18 19 19 18 18 18 18 19 19 20 20 21 21 20
15 15 16 17 18 19 19 19 19 19 19 19 19 19 19 19 19 19 18 18 18 18 18 18 19 19 19 18 18 18 19 19 19 20 20 21 21 20
Wind_Direction
283 283 284 286 286 286 285 282 280 278 280 283 283 285 287 286 284 285 285 284 285 284 283 282 282 282 281 279 277 277 275 273 270 267 264 262 260 259
283 284 284 285 287 286 285 286 283 281 282 284 284 286 289 290 289 288 287 287 288 288 286 284 283 283 282 280 279 278 277 275 272 269 267 265 264 263
284 284 287 286 287 288 287 287 287 285 284 286 287 288 290 291 291 289 287 287 289 290 290 287 284 283 284 283 282 279 277 274 273 271 269 268 267 266
287 288 288 288 291 292 291 291 291 289 287 289 291 291 292 292 293 292 289 288 289 289 290 288 286 285 286 285 283 280 277 275 274 272 270 270 269 267
287 288 289 292 294 293 293 293 294 292 290 291 295 294 294 293 292 292 291 290 291 292 291 290 288 288 287 285 283 280 277 276 275 274 272 271 271 269
288 289 291 293 293 294 295 296 295 292 292 293 295 297 297 297 295 293 293 291 291 292 292 290 290 290 289 286 284 281 278 277 277 276 275 273 272 270
289 291 292 292 293 295 297 298 297 297 297 297 296 298 299 299 298 296 295 294 293 293 294 293 292 291 289 287 285 283 281 280 279 278 276 275 273 272
292 291 291 292 293 297 299 299 298 297 299 302 302 301 301 302 301 301 301 299 297 296 295 294 294 294 293 292 289 286 284 283 282 280 277 276 274 273
296 294 292 293 295 297 298 297 298 299 301 304 304 304 304 303 302 303 302 302 302 300 298 297 296 295 294 294 292 289 286 284 283 282 280 278 277 275
301 300 298 297 297 298 299 299 301 301 302 303 304 306 305 305 303 304 305 304 303 302 302 300 298 296 297 298 295 292 289 287 285 283 281 279 277 275
305 303 300 299 299 299 300 301 303 303 304 304 304 304 305 306 307 308 308 306 305 304 305 304 303 300 300 300 298 296 293 290 287 285 282 279 278 276
307 307 307 305 302 300 301 302 304 304 304 305 305 305 307 308 309 309 310 309 308 307 308 308 307 305 303 303 301 298 296 295 291 288 285 282 280 279
306 307 308 309 307 304 302 302 304 306 305 305 305 306 308 310 310 310 311 311 311 311 311 310 311 310 310 309 307 302 298 296 294 291 286 285 283 282
307 308 308 310 311 308 304 303 304 307 308 305 304 305 308 310 311 310 310 312 314 314 313 313 314 314 313 314 312 308 303 301 298 296 293 291 289 287
308 307 308 311 313 313 310 306 304 308 311 310 307 307 310 312 313 312 312 314 315 314 315 317 318 317 316 316 316 315 310 305 302 301 298 297 294 291
314 312 310 310 314 314 313 312 310 311 312 313 312 311 312 313 314 314 314 314 314 315 316 317 319 319 318 318 318 317 314 310 305 302 300 301 303 301
316 316 312 311 313 314 316 318 316 316 317 317 316 315 315 317 317 317 317 318 318 319 319 320 320 318 319 320 320 319 314 310 307 305 302 302 304 306
316 316 316 315 314 315 318 318 316 316 317 318 318 318 317 317 318 318 319 321 323 324 324 322 320 319 319 320 323 323 320 317 314 312 311 310 309 308
317 317 317 318 319 317 316 315 315 316 318 320 321 321 320 320 320 320 321 323 325 325 324 323 322 322 322 322 323 323 322 320 318 316 316 314 313 311
317 317 317 318 319 318 317 317 317 318 319 321 322 323 324 324 324 325 325 326 326 326 327 327 325 324 323 322 322 322 322 321 320 319 318 317 317 315
316 317 318 318 319 318 318 318 319 320 320 320 321 322 323 325 326 326 327 328 328 328 329 329 329 328 327 326 324 322 322 322 322 321 321 320 320 319
315 316 318 319 320 321 320 319 318 320 321 321 320 320 321 321 324 325 327 327 328 328 329 330 331 332 331 328 325 324 325 325 325 324 324 324 325 323
315 315 317 319 321 322 322 320 318 317 319 319 320 320 320 319 321 322 322 323 325 327 327 327 327 330 330 329 327 327 328 328 328 327 327 326 326 326
Height
5788 5788 5787 5787 5786 5786 5785 5785 5785 5785 5785 5784 5783 5782 5781 5781 5780 5779 5778 5777 5776 5775 5774 5773 5772 5771 5770 5769 5768 5767 5766 5766 5765 5765 5765 5766 5767 5768
5784 5783 5783 5782 5782 5781 5781 5780 5779 5779 5779 5778 5777 5777 5775 5775 5774 5773 5772 5770 5769 5767 5766 5765 5764 5763 5761 5760 5759 5758 5757 5756 5756 5756 5756 5756 5757 5758
5780 5779 5779 5778 5777 5777 5776 5775 5774 5774 5773 5773 5772 5770 5769 5769 5768 5766 5765 5764 5762 5760 5759 5757 5756 5755 5753 5752 5750 5749 5748 5747 5747 5747 5747 5747 5747 5748
5775 5775 5774 5773 5773 5772 5771 5770 5769 5769 5768 5767 5766 5765 5764 5763 5761 5760 5759 5757 5756 5754 5752 5750 5748 5746 5744 5743 5741 5740 5739 5739 5738 5738 5738 5738 5738 5738
5771 5771 5770 5769 5768 5768 5766 5766 5765 5764 5763 5762 5761 5759 5758 5757 5755 5753 5752 5750 5748 5746 5744 5742 5740 5738 5736 5734 5733 5732 5731 5730 5729 5729 5728 5728 5728 5728
5767 5766 5766 5765 5764 5763 5762 5761 5760 5759 5758 5757 5756 5754 5752 5750 5748 5747 5745 5743 5741 5739 5737 5735 5733 5730 5728 5726 5725 5723 5722 5720 5720 5719 5718 5718 5717 5717
5763 5762 5762 5761 5760 5759 5758 5757 5755 5754 5753 5751 5750 5748 5746 5744 5742 5740 5738 5736 5734 5731 5729 5727 5725 5723 5720 5718 5716 5714 5712 5711 5710 5709 5708 5708 5707 5707
5759 5758 5758 5757 5756 5755 5753 5752 5751 5749 5748 5746 5744 5742 5740 5738 5735 5733 5731 5729 5727 5725 5722 5720 5717 5714 5712 5710 5707 5705 5703 5701 5700 5698 5697 5697 5696 5696
5756 5755 5754 5753 5752 5750 5749 5748 5746 5744 5743 5741 5739 5737 5734 5732 5730 5727 5724 5722 5719 5716 5714 5712 5709 5707 5704 5701 5699 5696 5694 5692 5690 5689 5687 5686 5685 5685
5752 5751 5750 5748 5747 5746 5745 5743 5741 5740 5738 5735 5733 5731 5728 5726 5723 5721 5718 5715 5713 5710 5707 5704 5702 5699 5696 5693 5690 5687 5685 5683 5681 5679 5678 5677 5675 5675
5749 5747 5746 5745 5743 5741 5740 5738 5737 5735 5732 5731 5728 5726 5723 5720 5718 5715 5712 5710 5707 5704 5700 5697 5694 5691 5689 5685 5682 5679 5677 5674 5672 5670 5669 5667 5666 5665
5745 5744 5742 5740 5739 5737 5735 5733 5732 5730 5727 5725 5723 5721 5718 5716 5713 5710 5706 5703 5700 5697 5694 5690 5687 5684 5682 5678 5674 5671 5668 5666 5664 5662 5661 5659 5658 5657
5742 5740 5738 5736 5734 5732 5730 5729 5727 5725 5722 5720 5719 5716 5714 5711 5708 5704 5701 5697 5694 5691 5688 5684 5681 5678 5674 5671 5668 5664 5661 5659 5657 5655 5653 5652 5650 5649
5738 5736 5734 5732 5730 5728 5726 5724 5722 5720 5718 5716 5714 5711 5709 5706 5703 5700 5696 5693 5689 5686 5682 5679 5675 5672 5668 5665 5662 5659 5655 5653 5651 5649 5647 5645 5644 5642
5734 5732 5730 5728 5726 5724 5722 5720 5718 5716 5714 5711 5709 5707 5704 5701 5698 5695 5692 5688 5685 5681 5677 5674 5670 5666 5663 5660 5657 5653 5650 5648 5645 5643 5642 5640 5637 5636
5730 5729 5727 5725 5722 5720 5718 5716 5714 5712 5710 5707 5705 5702 5699 5696 5693 5690 5687 5683 5680 5676 5672 5669 5665 5662 5658 5655 5652 5649 5646 5643 5641 5638 5636 5634 5631 5629
5727 5725 5723 5721 5719 5717 5715 5712 5710 5708 5706 5703 5700 5698 5695 5692 5689 5685 5682 5678 5675 5671 5668 5664 5660 5657 5654 5651 5647 5644 5641 5638 5636 5634 5631 5629 5627 5624
5724 5722 5720 5718 5716 5714 5712 5710 5707 5705 5702 5699 5696 5693 5690 5687 5684 5681 5677 5674 5670 5666 5663 5660 5656 5653 5650 5647 5644 5640 5637 5634 5632 5629 5627 5624 5621 5618
5721 5718 5717 5715 5713 5710 5708 5706 5704 5701 5698 5695 5692 5689 5686 5683 5680 5676 5673 5669 5666 5663 5659 5656 5652 5649 5646 5643 5640 5637 5634 5631 5628 5625 5622 5619 5616 5613
5717 5715 5713 5711 5709 5707 5704 5702 5700 5697 5694 5691 5688 5685 5682 5679 5675 5672 5669 5665 5662 5659 5655 5652 5649 5645 5642 5639 5636 5633 5630 5627 5624 5622 5618 5615 5612 5608
5713 5711 5709 5707 5705 5703 5701 5698 5696 5693 5690 5687 5684 5681 5678 5675 5671 5668 5665 5662 5658 5655 5652 5649 5645 5642 5638 5635 5632 5630 5627 5623 5620 5618 5615 5611 5608 5604
5710 5708 5706 5704 5702 5699 5697 5694 5692 5689 5686 5683 5680 5677 5674 5671 5668 5664 5661 5658 5655 5652 5649 5646 5642 5639 5635 5632 5629 5626 5623 5620 5617 5613 5610 5607 5603 5600
5707 5705 5702 5701 5698 5696 5693 5690 5688 5685 5682 5679 5676 5673 5670 5667 5664 5661 5658 5655 5652 5649 5645 5642 5639 5636 5633 5629 5626 5623 5620 5617 5613 5610 5607 5603 5599 5595